Погода в Кала-Гононе

Италия     40°16′57″N   9°37′45″E
темп.,
°C
ветер,
м/с
пор.,
м/с
влажн.,
%
обл.,
%
осадки,
мм/ч
давл.,
гПа
погр.,
м
19 января, вт
вт1901:00+10зсз45710 0.0 1026240
04:00+9зсз33680 0.0 1025202
07:00+9зсз44740 0.0 1026186
10:00+10з22601 0.0 1027239
13:00+11ююв44651 0.0 1026372
16:00+12ююв43672 0.0 1025402
19:00+12ю43663 0.0 1026485
22:00+11з43711 0.0 1026178
20 января, ср
ср2001:00+10зсз44661 0.0 1026157
04:00+10зсз22660 0.0 1023193
07:00+10з226647 0.0 1023191
10:00+10ссз1060100 0.0 1022154
13:00+11вюв2271100 0.0 1021200
16:00+12ю23792 0.0 1018177
19:00+13юз127451 0.0 1018247
22:00+13ююз2365100 0.0 1017240
21 января, чт
чт2101:00+13зюз2256100 0.0 1016200
04:00+13з2248100 0.0 101485
07:00+14юз2357100 0.0 101443
10:00+14юз3368100 0.0 101569
13:00+15ю5573100 0.1 1015146
16:00+14ю7777100 0.1 1013235
19:00+14ююз337862 0.1 1014125
22:00+13юз227445 0.0 1014115
22 января, пт
пт2201:00+14ююз457573 0.0 1012145
04:00+14ю8976100 0.0 1010224
07:00+15ю8878100 0.0 1009132
10:00+15ююз5672100 0.1 1009172
13:00+16з346384 0.1 100895
16:00+15з586023 0.0 1007289
19:00+14ю5116348 0.0 1007706
22:00+13зсз3659100 0.0 1006918
23 января, сб
сб2301:00+13з3365100 0.1 1006164
04:00+12зсз6116798 0.0 10061277
07:00+11зсз9146782 0.0 1008989
10:00+12зсз13186567 0.0 10111370
13:00+13зсз9156264 0.0 10121782
16:00+14з7136257 0.0 10111568
19:00+12зюз5126275 0.0 10111308
22:00+13ююз31259100 0.0 10111214